Regional Weather Roundup
Issued by NWS Kansas City/Pleasant Hill, MO

Home | Current Version | Previous Version | Text Only | Print | Product List | Glossary On
Versions: 1 2 3 4 5 6 7 8 9 10 11 12 13 14 15 16 17 18 19 20 21 22 23 24 25 26 27 28 29 30 31 32 33 34 35 36 37 38 39 40 41 42 43 44 45 46 47 48 49 50
000
ASUS43 KEAX 251811
RWREAX

WEATHER ROUNDUP FOR EASTERN KANSAS AND NORTHWEST MISSOURI
NATIONAL WEATHER SERVICE KANSAS CITY/PLEASANT HILL MO
1200 PM CST THU DEC 25 2014

KSZ040-057-103>105-MOZ028-029-037-043-251900-
...KANSAS CITY METROPOLITAN AREA...

CITY           SKY/WX    TMP DP  RH WIND       PRES   REMARKS
K.C. INTL      MOSUNNY   48  30  49 S25G35    29.74F
6HR MIN TEMP:  31; 6HR MAX TEMP:  48;

K.C. DOWNTOWN  SUNNY     51  29  42 S24G31    29.78F
6HR MIN TEMP:  32; 6HR MAX TEMP:  51;

LEES SUMMIT    SUNNY     47  29  49 S17G30    29.79F
6HR MIN TEMP:  31; 6HR MAX TEMP:  47;

OLATHE - IXD   SUNNY     48  30  49 S21G31    29.76F
6HR MIN TEMP:  30; 6HR MAX TEMP:  48;

OLATHE - OJC   SUNNY     48  28  46 S20G36    29.76F
6HR MIN TEMP:  30; 6HR MAX TEMP:  48;

LAWRENCE       SUNNY     50  30  46 S18G25    29.74F

$$

MOZ001>008-011>017-020>025-030>033-038>040-044>046-053-054-251900-
...NORTHERN AND CENTRAL MISSOURI...

CITY           SKY/WX    TMP DP  RH WIND       PRES   REMARKS
ST. JOSEPH     SUNNY     48  30  49 S24G33    29.73F
6HR MIN TEMP:  30; 6HR MAX TEMP:  48;

MOSBY          CLEAR     46  30  53 S16G24    29.80F
WARRENSBURG    SUNNY     50  32  50 S15G26    29.83F
WHITEMAN AFB   SUNNY     49  31  49 S24G32    29.84F
6HR MIN TEMP:  30; 6HR MAX TEMP:  49; 6HR PCP:  0.01;

CLINTON        SUNNY     48  32  53 S16G22    29.88F
SEDALIA        SUNNY     50  31  48 S18G30    29.88F
6HR MIN TEMP:  32; 6HR MAX TEMP:  50;

WARSAW         NOT AVBL
MARSHALL       SUNNY     50  34  53 S20G25    29.88F
CHILLICOTHE      N/A     48  32  53 S15       29.83F
6HR MIN TEMP:  31; 6HR MAX TEMP:  48;

MOBERLY        SUNNY     48  30  49 S15G23    29.89F
KIRKSVILLE     MOSUNNY   47  32  56 S14G21    29.86F
6HR MIN TEMP:  29; 6HR MAX TEMP:  47;


$$

MOZ041-047>049-056>058-063>065-088>090-097-251900-
...EASTERN AND SOUTHERN MISSOURI...

CITY           SKY/WX    TMP DP  RH WIND       PRES   REMARKS
ST. LOUIS INTL MOSUNNY   49  33  54 S10       30.01F
6HR MIN TEMP:  35; 6HR MAX TEMP:  49;

SPIRIT OF STL  SUNNY     48  32  53 S9G18     29.99F
COLUMBIA       SUNNY     46  32  58 S16       29.92F
JEFFERSON CITY SUNNY     47  31  53 S10       29.95F
MEXICO         SUNNY     46  37  71 S15       29.92F
HANNIBAL       SUNNY     48  30  49 S14G20    29.91F
ROLLA          SUNNY     47  31  53 S14       29.94F
LEBANON        SUNNY     48  30  49 S15G22    29.94F
OSAGE BEACH    SUNNY     48  30  49 S16       29.94F
SPRINGFIELD    SUNNY     48  30  49 S16G29    29.90F
BRANSON        PTSUNNY   50  27  40 S23       29.97F
NEVADA         SUNNY     52  30  43 S18G26    29.85F
JOPLIN         SUNNY     52  27  38 S23G37    29.87F
WEST PLAINS    SUNNY     46  31  55 S12G22    30.02F

$$

IAZ060-094-KSZ022-034>040-054-083-096-NEZ052-066-093-251900-
...KANSAS...SOUTHEAST NEBRASKA AND IOWA...

CITY           SKY/WX    TMP DP  RH WIND       PRES   REMARKS
TOPEKA         SUNNY     51  29  42 S17G29    29.70F
6HR MIN TEMP:  35; 6HR MAX TEMP:  51;

MANHATTAN      SUNNY     51  29  42 S21G26    29.61F
EMPORIA        SUNNY     48  30  49 S25G36    29.67F
CHANUTE        SUNNY     51  30  44 S28G41    29.78F
WICHITA        MOSUNNY   51  27  39 S29G40    29.63F
OMAHA          MOSUNNY   42  29  59 S16       29.65F WCI  34
LINCOLN        SUNNY     45  30  55 S13       29.60F
FALLS CITY     SUNNY     46  31  55 SE20      29.67F
LAMONI         MOSUNNY   44  31  60 S15G24    29.76F
DES MOINES     PTSUNNY   43  30  60 S14       29.75F

$$



USA.gov is the U.S. government's official web portal to all federal, state and local government web resources and services.